SENTINEL-1A

Last updated on Sat Oct 25 2025 00:02:32 GMT+0000 (Coordinated Universal Time)

1 39634U 14016A 25297.68761887 .00000290 00000+0 71186-4 0 9990 2 39634 98.1820 303.6469 0001317 89.1811 270.9539 14.59200182615678
UTC large
Height (km)
Speed (km/s)
/
Latitude / Longitude
Inclination (degrees)
Orbital Period (minutes)
Azimuth
Elevation
Range (km)
Doppler Factor

Next 0 passes for location: London (51.5072 / 0.1276)

Sorry there are no passes over London.